When you browse on this site, cookies collect data to enhance your experience and personalize the content and advertising you see.
Visit our Privacy Policy to learn more. By continuing to use the site, you agree to this use of cookies and data.
  • In United Kingdom
  • List of Countries
  • For 7 days
  • Water Temperature
  • Satellite Maps
  • Weather Map
  • Weather Widgets
  • user-avatar
    Login

    Hourly Weather Pointe-Noire

    Today, 20 January, Sunday

    Time Temperature Precipitation Wind Pressure Humidity
    00:00 +26°C° 0 mm 2 mps 722 mmHg 79%
    01:00 +25°C° 0 mm 2 mps 722 mmHg 83%
    02:00 +25°C° 0 mm 2 mps 722 mmHg 85%
    03:00 +25°C° 0 mm 2 mps 722 mmHg 87%
    04:00 +25°C° 0 mm 2 mps 722 mmHg 88%
    05:00 +25°C° 0 mm 1 mps 722 mmHg 88%
    06:00 +25°C° 0 mm 1 mps 722 mmHg 88%
    07:00 +25°C° 0 mm 1 mps 723 mmHg 87%
    08:00 +26°C° 0 mm 1 mps 723 mmHg 81%
    09:00 +27°C° 0 mm 1 mps 723 mmHg 75%
    10:00 +28°C° 0 mm 1 mps 723 mmHg 69%
    11:00 +31°C° 0 mm 1 mps 722 mmHg 59%
    12:00 +34°C° 0 mm 1 mps 722 mmHg 48%
    13:00 +36°C° 0 mm 1 mps 721 mmHg 38%
    14:00 +37°C° 0 mm 1 mps 721 mmHg 35%
    15:00 +35°C° 0 mm 0 mps 720 mmHg 32%
    16:00 +35°C° 0 mm 0 mps 720 mmHg 29%
    17:00 +33°C° 0 mm 0 mps 720 mmHg 34%
    18:00 +32°C° 0 mm 1 mps 720 mmHg 39%
    19:00 +30°C° 0 mm 1 mps 720 mmHg 44%
    20:00 +29°C° 0 mm 1 mps 721 mmHg 50%
    21:00 +28°C° 0 mm 2 mps 721 mmHg 56%
    22:00 +28°C° 0 mm 2 mps 722 mmHg 62%
    23:00 +27°C° 0 mm 2 mps 722 mmHg 69%

    Tomorrow, 21 January, Monday

    Time Temperature Precipitation Wind Pressure Humidity
    00:00 +26°C° 0 mm 2 mps 722 mmHg 75%
    01:00 +25°C° 0 mm 2 mps 722 mmHg 82%
    02:00 +25°C° 0 mm 2 mps 722 mmHg 85%
    03:00 +24°C° 0 mm 1 mps 722 mmHg 88%
    04:00 +24°C° 0 mm 1 mps 722 mmHg 91%
    05:00 +24°C° 0 mm 1 mps 722 mmHg 89%
    06:00 +24°C° 0 mm 1 mps 722 mmHg 88%
    07:00 +25°C° 0 mm 1 mps 722 mmHg 87%
    08:00 +26°C° 0 mm 1 mps 723 mmHg 79%
    09:00 +28°C° 0 mm 1 mps 723 mmHg 72%
    10:00 +29°C° 0 mm 1 mps 723 mmHg 64%
    11:00 +32°C° 0 mm 1 mps 722 mmHg 54%
    12:00 +34°C° 0 mm 1 mps 722 mmHg 44%
    13:00 +37°C° 0 mm 1 mps 721 mmHg 35%
    14:00 +37°C° 0 mm 1 mps 720 mmHg 32%
    15:00 +37°C° 0 mm 1 mps 720 mmHg 29%
    16:00 +39°C° 0 mm 1 mps 719 mmHg 26%
    17:00 +35°C° 0 mm 1 mps 719 mmHg 32%
    18:00 +33°C° 0 mm 1 mps 719 mmHg 37%
    19:00 +30°C° 0 mm 1 mps 719 mmHg 43%
    20:00 +29°C° 0 mm 2 mps 720 mmHg 51%
    21:00 +28°C° 0 mm 2 mps 721 mmHg 60%
    22:00 +27°C° 0 mm 3 mps 721 mmHg 69%
    23:00 +27°C° 0 mm 3 mps 721 mmHg 75%

    Day after tomorrow, 22 January, Tuesday

    Time Temperature Precipitation Wind Pressure Humidity
    00:00 +26°C° 0 mm 2 mps 721 mmHg 81%
    01:00 +25°C° 0 mm 2 mps 721 mmHg 87%
    02:00 +25°C° 0 mm 2 mps 721 mmHg 86%
    03:00 +25°C° 0 mm 2 mps 721 mmHg 86%
    04:00 +26°C° 0 mm 2 mps 720 mmHg 86%
    05:00 +26°C° 0 mm 2 mps 721 mmHg 85%
    06:00 +26°C° 0 mm 1 mps 721 mmHg 84%
    07:00 +26°C° 0 mm 1 mps 722 mmHg 84%
    08:00 +27°C° 0 mm 1 mps 722 mmHg 75%
    09:00 +29°C° 0 mm 2 mps 722 mmHg 67%
    10:00 +31°C° 0 mm 2 mps 723 mmHg 58%
    11:00 +33°C° 0 mm 1 mps 722 mmHg 49%
    12:00 +35°C° 0 mm 1 mps 721 mmHg 40%
    13:00 +39°C° 0 mm 1 mps 721 mmHg 30%
    14:00 +39°C° 0 mm 1 mps 720 mmHg 28%
    15:00 +39°C° 0 mm 1 mps 719 mmHg 26%
    16:00 +39°C° 0 mm 1 mps 718 mmHg 24%
    17:00 +36°C° 0 mm 1 mps 718 mmHg 28%
    18:00 +33°C° 0 mm 1 mps 719 mmHg 32%
    19:00 +31°C° 0 mm 1 mps 719 mmHg 36%
    20:00 +30°C° 0 mm 2 mps 720 mmHg 49%
    21:00 +29°C° 0 mm 2 mps 720 mmHg 61%
    22:00 +27°C° 0 mm 3 mps 721 mmHg 74%
    23:00 +27°C° 0 mm 3 mps 721 mmHg 76%

    23 January, Wednesday

    Time Temperature Precipitation Wind Pressure Humidity
    00:00 +27°C° 0 mm 3 mps 721 mmHg 79%
    01:00 +26°C° 0 mm 3 mps 721 mmHg 81%
    02:00 +26°C° 0.1 mm 3 mps 720 mmHg 82%
    03:00 +26°C° 0.1 mm 2 mps 720 mmHg 83%
    04:00 +26°C° 0.1 mm 2 mps 720 mmHg 84%
    05:00 +26°C° 0.1 mm 2 mps 721 mmHg 85%
    06:00 +26°C° 0.1 mm 2 mps 721 mmHg 87%
    07:00 +25°C° 0.1 mm 1 mps 721 mmHg 88%
    08:00 +27°C° 0 mm 2 mps 722 mmHg 81%
    09:00 +28°C° 0 mm 2 mps 722 mmHg 73%
    10:00 +30°C° 0 mm 2 mps 722 mmHg 66%
    11:00 +32°C° 0 mm 2 mps 722 mmHg 57%
    12:00 +35°C° 0 mm 2 mps 721 mmHg 49%
    13:00 +37°C° 0 mm 2 mps 720 mmHg 41%
    14:00 +37°C° 0 mm 2 mps 719 mmHg 38%
    15:00 +37°C° 0 mm 2 mps 719 mmHg 35%
    16:00 +37°C° 0 mm 1 mps 718 mmHg 32%
    17:00 +34°C° 0 mm 1 mps 718 mmHg 39%
    18:00 +32°C° 0 mm 1 mps 719 mmHg 45%
    19:00 +30°C° 0 mm 1 mps 719 mmHg 51%
    20:00 +29°C° 0 mm 2 mps 720 mmHg 59%
    21:00 +29°C° 0 mm 2 mps 720 mmHg 67%
    22:00 +28°C° 0 mm 3 mps 721 mmHg 75%
    23:00 +27°C° 0 mm 3 mps 721 mmHg 79%

    24 January, Thursday

    Time Temperature Precipitation Wind Pressure Humidity
    00:00 +26°C° 0 mm 3 mps 720 mmHg 82%
    01:00 +26°C° 0 mm 3 mps 720 mmHg 85%
    02:00 +26°C° 0 mm 3 mps 720 mmHg 85%
    03:00 +26°C° 0 mm 2 mps 719 mmHg 85%
    04:00 +26°C° 0 mm 2 mps 719 mmHg 85%
    05:00 +26°C° 0 mm 2 mps 720 mmHg 85%
    06:00 +26°C° 0 mm 2 mps 720 mmHg 85%
    07:00 +26°C° 0 mm 1 mps 721 mmHg 86%
    08:00 +27°C° 0 mm 1 mps 721 mmHg 78%
    09:00 +29°C° 0 mm 1 mps 721 mmHg 70%
    10:00 +30°C° 0 mm 1 mps 722 mmHg 63%
    11:00 +32°C° 0 mm 2 mps 721 mmHg 55%
    12:00 +35°C° 0 mm 2 mps 720 mmHg 47%
    13:00 +37°C° 0 mm 2 mps 719 mmHg 40%
    14:00 +37°C° 0 mm 2 mps 719 mmHg 40%
    15:00 +36°C° 0 mm 2 mps 718 mmHg 41%
    16:00 +36°C° 0 mm 2 mps 717 mmHg 41%
    17:00 +34°C° 0 mm 2 mps 718 mmHg 46%
    18:00 +32°C° 0 mm 2 mps 718 mmHg 52%
    19:00 +30°C° 0 mm 2 mps 719 mmHg 57%
    20:00 +29°C° 0 mm 2 mps 719 mmHg 64%
    21:00 +28°C° 0 mm 2 mps 720 mmHg 70%
    22:00 +27°C° 0 mm 3 mps 720 mmHg 77%
    23:00 +27°C° 0 mm 2 mps 720 mmHg 79%

    25 January, Friday

    Time Temperature Precipitation Wind Pressure Humidity
    00:00 +26°C° 0 mm 2 mps 720 mmHg 82%
    01:00 +25°C° 0 mm 2 mps 720 mmHg 84%
    02:00 +25°C° 0.1 mm 2 mps 720 mmHg 86%
    03:00 +25°C° 0.1 mm 2 mps 720 mmHg 89%
    04:00 +24°C° 0.1 mm 2 mps 720 mmHg 91%
    05:00 +24°C° 0.4 mm 1 mps 720 mmHg 92%
    06:00 +24°C° 0.4 mm 1 mps 721 mmHg 92%
    07:00 +24°C° 0.4 mm 1 mps 721 mmHg 93%
    08:00 +27°C° 0.1 mm 1 mps 721 mmHg 82%
    09:00 +29°C° 0.1 mm 1 mps 722 mmHg 71%
    10:00 +31°C° 0.1 mm 2 mps 722 mmHg 60%
    11:00 +33°C° 0 mm 1 mps 721 mmHg 51%
    12:00 +35°C° 0 mm 1 mps 721 mmHg 43%
    13:00 +39°C° 0 mm 1 mps 720 mmHg 34%
    14:00 +37°C° 0 mm 1 mps 719 mmHg 34%
    15:00 +37°C° 0 mm 1 mps 718 mmHg 35%
    16:00 +36°C° 0 mm 1 mps 718 mmHg 35%
    17:00 +34°C° 0 mm 1 mps 718 mmHg 40%
    18:00 +32°C° 0 mm 1 mps 718 mmHg 44%
    19:00 +31°C° 0 mm 1 mps 719 mmHg 49%
    20:00 +30°C° 0 mm 2 mps 719 mmHg 57%
    21:00 +28°C° 0 mm 2 mps 720 mmHg 66%
    22:00 +27°C° 0 mm 3 mps 720 mmHg 75%
    23:00 +27°C° 0 mm 3 mps 720 mmHg 78%
    Show more